IU5JAE-13 Weather Reports


time (UTC)temp
C
wind
direction
speed
KPH
gust
KPH
rain 1hr
cm
rain 24hr
cm
rain mn
cm
humidity
%
barometer
mb
20260506215534 11 11 0.0 3.2 0.00 5.97 5.97 95 1012.4
20260506214531 11 322 1.6 3.2 0.00 5.99 5.97 95 1012.2
20260506213529 10 301 0.0 3.2 0.00 6.02 5.97 94 1012.3
20260506212526 11 301 0.0 3.2 0.00 6.12 5.97 95 1012.2
20260506211524 11 72 0.0 1.6 0.00 6.25 5.97 94 1012.2
20260506210522 11 56 3.2 4.8 0.00 6.40 5.97 94 1012.2
20260506205519 11 283 1.6 3.2 0.00 6.45 5.97 95 1012.0
20260506204517 11 256 0.0 3.2 0.00 6.53 5.97 96 1012.1
20260506203534 11 250 1.6 4.8 0.00 6.53 5.97 96 1012.0
20260506202532 11 254 1.6 4.8 0.00 6.53 5.97 96 1012.0
20260506201530 11 260 1.6 4.8 0.00 6.53 5.97 96 1011.9
20260506200528 11 291 0.0 3.2 0.00 6.55 5.97 96 1011.8
20260506195525 11 240 0.0 3.2 0.00 6.55 5.97 96 1011.7
20260506194522 12 163 1.6 4.8 0.00 6.55 5.97 96 1011.6
20260506193520 12 125 1.6 8.0 0.00 6.60 5.97 96 1011.5
20260506192518 11 64 0.0 3.2 0.00 6.60 5.97 94 1011.4
20260506191515 11 271 1.6 3.2 0.00 6.60 5.97 93 1011.2
20260506190533 11 287 0.0 3.2 0.00 6.65 5.97 93 1011.0
20260506185531 12 292 0.0 3.2 0.00 6.68 5.97 92 1010.8
20260506184529 12 0.0 1.6 0.00 6.68 5.97 92 1010.7
20260506183526 12 296 0.0 3.2 0.00 6.68 5.97 91 1010.6
20260506182523 12 16 1.6 4.8 0.00 6.68 5.97 90 1010.6
20260506181521 12 241 1.6 3.2 0.00 6.68 5.97 90 1010.5
20260506180518 13 62 1.6 4.8 0.00 6.68 5.97 91 1010.5
20260506175516 13 70 1.6 4.8 0.00 6.68 5.97 92 1010.3
20260506174534 13 86 1.6 4.8 0.00 6.68 5.97 91 1010.2
20260506173531 13 53 4.8 11.3 0.00 6.68 5.97 91 1010.3
20260506172529 13 86 4.8 8.0 0.00 6.68 5.97 91 1010.4
20260506171526 13 102 3.2 6.4 0.00 6.68 5.97 90 1010.4
20260506170524 13 103 4.8 8.0 0.00 6.68 5.97 89 1010.4
20260506165522 13 120 3.2 6.4 0.00 6.68 5.97 88 1010.2
20260506164519 14 95 1.6 6.4 0.00 6.68 5.97 86 1010.3
20260506163517 14 55 1.6 6.4 0.00 6.68 5.97 84 1010.3
20260506162535 14 150 0.0 3.2 0.00 6.68 5.97 85 1010.4
20260506161532 14 101 1.6 9.7 0.00 6.68 5.97 85 1010.4
20260506160530 14 176 1.6 9.7 0.00 6.68 5.97 84 1010.4
20260506155527 15 187 1.6 9.7 0.00 6.68 5.97 82 1010.3
20260506154525 15 162 3.2 6.4 0.00 6.68 5.97 80 1010.5
20260506153523 15 96 3.2 6.4 0.00 6.68 5.97 79 1010.4
20260506152520 16 56 3.2 9.7 0.00 6.68 5.97 78 1010.2
20260506151518 16 77 4.8 9.7 0.00 6.68 5.97 79 1010.3
20260506150515 16 266 4.8 11.3 0.00 6.68 5.97 78 1010.3
20260506145533 15 101 1.6 4.8 0.00 6.68 5.97 82 1010.3
20260506144531 15 289 4.8 14.5 0.00 6.68 5.97 81 1010.3
20260506143528 16 128 1.6 9.7 0.00 6.68 5.97 85 1010.2
20260506142526 16 96 3.2 6.4 0.00 6.68 5.97 85 1010.2
20260506141523 15 93 3.2 9.7 0.00 6.68 5.97 87 1010.2
20260506140521 15 95 3.2 8.0 0.00 6.68 5.97 88 1010.3
20260506135519 15 83 4.8 9.7 0.00 6.68 5.97 91 1010.2
20260506134516 14 63 4.8 11.3 0.00 6.68 5.97 92 1010.4
20260506133534 14 85 6.4 16.1 0.00 6.68 5.97 92 1010.4
20260506132532 14 90 6.4 16.1 0.00 6.68 5.97 92 1010.4
20260506131529 14 75 4.8 9.7 0.00 6.68 5.97 93 1010.3
20260506130527 14 78 6.4 9.7 0.00 6.68 5.97 94 1010.3
20260506125524 14 80 4.8 9.7 0.00 6.68 5.97 95 1010.2
20260506124522 14 83 4.8 17.7 0.00 6.68 5.97 96 1010.3
20260506123519 13 80 6.4 17.7 0.13 6.68 5.97 96 1010.1
20260506122517 13 80 6.4 16.1 0.23 6.68 5.97 98 1010.2
20260506121535 14 87 3.2 11.3 0.28 6.68 5.97 98 1010.3
20260506120532 13 82 3.2 12.9 0.41 6.73 5.97 97 1010.1
20260506115530 13 96 1.6 6.4 0.41 6.91 5.97 96 1009.9
20260506114528 12 62 6.4 17.7 0.41 6.91 5.97 96 1010.0
20260506113525 13 88 6.4 14.5 0.28 6.81 5.84 98 1010.1
20260506112523 13 81 8.0 16.1 0.28 6.68 5.71 99 1009.9
20260506111520 13 101 8.0 19.3 0.69 6.65 5.69 99 1009.7
20260506110518 13 86 6.4 22.5 0.76 6.53 5.56 99 1009.8
20260506105515 13 94 6.4 17.7 0.76 6.50 5.56 99 1009.8
20260506104533 13 177 6.4 20.9 0.76 6.53 5.56 99 1009.9
20260506103531 13 83 6.4 17.7 0.76 6.58 5.56 99 1009.8
20260506102528 12 94 6.4 12.9 0.66 6.48 5.46 99 1010.0
20260506101526 13 178 6.4 19.3 0.23 6.02 5.00 99 1010.0
20260506100524 13 170 6.4 17.7 0.05 5.84 4.80 99 1009.9
20260506095521 13 139 8.0 19.3 0.05 5.87 4.80 99 1009.8
20260506094519 13 147 8.0 19.3 0.03 5.94 4.80 99 1009.8
20260506093516 13 172 6.4 24.1 0.05 5.97 4.80 99 1009.7
20260506092534 13 140 6.4 17.7 0.05 5.97 4.80 99 1009.6
20260506091532 13 240 4.8 16.1 0.03 6.10 4.75 99 1009.7
20260506090529 13 168 6.4 16.1 0.03 6.43 4.75 99 1009.5
20260506085527 13 101 4.8 22.5 0.03 6.78 4.75 99 1009.4
20260506084525 12 145 6.4 19.3 0.03 6.86 4.75 99 1009.4
20260506083522 12 239 4.8 16.1 0.00 7.21 4.75 99 1009.8
20260506082520 12 149 6.4 14.5 0.03 7.39 4.75 99 1009.7
20260506081517 12 152 6.4 17.7 0.05 7.44 4.75 99 1009.8
20260506080535 12 179 6.4 16.1 0.05 7.62 4.72 99 1009.7
20260506073528 12 123 1.6 8.0 0.64 7.90 4.72 99 1009.9
20260506072525 12 185 6.4 12.9 0.71 8.05 4.72 99 1009.9
20260506071523 12 200 1.6 6.4 0.99 8.71 4.70 99 1009.8
20260506070520 12 173 6.4 16.1 1.12 9.04 4.70 99 1009.7
20260506061528 12 185 1.6 3.2 0.33 8.10 3.71 99 1009.6
20260506060526 12 41 1.6 4.8 0.30 7.98 3.58 99 1009.4
20260506050532 11 240 1.6 4.8 0.33 8.20 3.28 99 1009.7
20260506044527 12 231 1.6 3.2 0.38 8.92 3.15 99 1009.6
20260506043524 12 206 4.8 8.0 0.33 9.35 3.10 99 1009.7
20260506042522 12 198 3.2 4.8 0.28 9.60 3.02 99 1009.7
20260506041519 12 191 3.2 6.4 0.28 9.68 3.00 99 1009.6
20260506040517 12 217 3.2 8.0 0.25 9.65 2.95 99 1009.7
20260506035535 12 233 3.2 6.4 0.15 9.55 2.82 99 1009.7
20260506034532 12 220 3.2 9.7 0.15 9.53 2.77 99 1009.8
20260506033530 12 218 1.6 6.4 0.18 9.55 2.77 99 1009.8
20260506032528 12 231 3.2 6.4 0.23 9.55 2.77 99 1009.8
20260506031525 12 203 6.4 9.7 0.18 9.53 2.72 99 1010.1
20260506030523 12 203 8.0 17.7 0.33 9.50 2.69 99 1010.0
20260506025520 12 164 3.2 9.7 0.43 9.53 2.67 99 1009.9
20260506024518 12 249 0.0 3.2 0.38 9.55 2.64 99 1009.9
20260506023515 12 102 0.0 3.2 0.33 9.55 2.59 99 1009.9
20260506022533 12 255 0.0 3.2 0.30 9.70 2.54 99 1010.1
20260506021531 12 182 0.0 3.2 0.28 9.80 2.54 99 1009.9
20260506020528 12 256 1.6 3.2 0.15 9.73 2.36 99 1010.2
20260506015526 12 84 0.0 3.2 0.08 9.65 2.24 99 1010.3
20260506014523 12 232 1.6 3.2 0.23 9.70 2.24 99 1010.7
20260506013521 12 222 1.6 3.2 0.46 9.78 2.24 99 1010.6
20260506012518 12 177 0.0 3.2 0.61 9.83 2.24 99 1010.4
20260506011516 12 203 0.0 3.2 0.69 9.86 2.24 99 1010.7
20260506010534 12 51 0.0 3.2 0.79 9.88 2.24 99 1010.7
20260506005531 12 186 1.6 3.2 0.76 9.88 2.16 99 1010.9
20260506004529 12 151 1.6 6.4 0.61 9.78 2.01 99 1011.1
20260506003527 12 177 1.6 4.8 0.38 9.60 1.78 99 1011.2
20260506002524 12 204 1.6 4.8 0.25 9.47 1.65 99 1011.4
20260506001522 12 203 1.6 3.2 0.48 9.37 1.55 99 1011.3
20260506000519 12 209 1.6 4.8 0.81 9.27 1.45 99 1011.4
20260505235517 12 209 4.8 12.9 0.94 9.25 1.42 99 1011.6
20260505234535 12 193 8.0 16.1 1.37 9.25 1.42 99 1011.5
20260505233532 13 208 3.2 8.0 1.42 9.25 1.42 99 1011.2
20260505232530 13 210 4.8 12.9 1.37 9.22 1.37 99 1011.4
20260505231527 13 197 6.4 16.1 1.07 8.89 1.07 99 1011.5
20260505230525 13 196 3.2 9.7 0.64 8.46 0.64 99 1011.5
20260505225522 13 267 1.6 4.8 0.48 8.28 0.46 99 1011.5
20260505224520 13 184 1.6 4.8 0.05 7.85 0.03 99 1011.7
20260505223518 13 198 6.4 14.5 0.05 7.82 0.00 99 1012.0
20260505222515 13 186 1.6 4.8 0.15 7.82 0.00 99 1012.1
20260505221533 13 195 4.8 12.9 0.28 7.82 0.00 99 1012.2
20260505220530 13 209 4.8 14.5 0.43 7.82 0.00 99 1012.1